This is the latest recevied weather packets stored in our database for station/object KD5UIG. If no packets are shown the sender has not sent any weather packets the latest 10 day(s).
| Time | Temp. | Humidity | Pressure | Rain* | Wind** | Luminosity | Snow |
|---|---|---|---|---|---|---|---|
| 1777850158 | 27.22° C | 37% | 1015.4 hPa | 0 mm | - | 279 W/m² | - |
| 1777848655 | 27.78° C | 33% | 1015.5 hPa | 0 mm | - | 271 W/m² | - |
| 1777848358 | 28.33° C | 33% | 1015.5 hPa | 0 mm | - | 332 W/m² | - |
| 1777842355 | 29.44° C | 34% | 1016.6 hPa | 0 mm | - | 703 W/m² | - |
| 1777841458 | 29.44° C | 34% | 1016.8 hPa | 0 mm | - | 766 W/m² | - |
| 1777839955 | 28.89° C | 34% | 1017.4 hPa | 0 mm | - | 782 W/m² | - |
| 1777839655 | 29.44° C | 36% | 1017.5 hPa | 0 mm | - | 791 W/m² | - |
| 1777839054 | 29.44° C | 33% | 1017.7 hPa | 0 mm | - | 809 W/m² | - |
| 1777836356 | 29.44° C | 38% | 1018.3 hPa | 0 mm | - | 891 W/m² | - |
| 1777835769 | 29.44° C | 42% | 1018.4 hPa | 0 mm | - | 912 W/m² | - |
| 1777835455 | 29.44° C | 38% | 1018.5 hPa | 0 mm | - | 933 W/m² | - |
| 1777834258 | 28.89° C | 37% | 1018.7 hPa | 0 mm | - | 898 W/m² | - |
| 1777833069 | 29.44° C | 39% | 1018.9 hPa | 0 mm | - | 904 W/m² | - |
| 1777832168 | 28.33° C | 38% | 1019.3 hPa | 0 mm | - | 898 W/m² | - |
| 1777829460 | 28.33° C | 44% | 1020.2 hPa | 0 mm | - | 867 W/m² | - |
| 1777827057 | 27.78° C | 43% | 1020.7 hPa | 0 mm | - | 823 W/m² | - |
| 1777826454 | 27.22° C | 45% | 1020.8 hPa | 0 mm | - | 809 W/m² | - |
| 1777825257 | 27.22° C | 45% | 1020.8 hPa | 0 mm | - | 768 W/m² | - |
| 1777824960 | 27.22° C | 47% | 1020.8 hPa | 0 mm | - | 761 W/m² | - |
| 1777823161 | 26.11° C | 48% | 1020.9 hPa | 0 mm | - | 696 W/m² | - |
| 1777820155 | 23.33° C | 55% | 1021 hPa | 0 mm | - | 568 W/m² | - |
| 1777819258 | 22.78° C | 58% | 1021 hPa | 0 mm | - | 519 W/m² | - |
| 1777817157 | 19.44° C | 67% | 1020.9 hPa | 0 mm | - | 410 W/m² | - |
| 1777814755 | 15.56° C | 79% | 1020.6 hPa | 0 mm | - | 279 W/m² | - |
| 1777813258 | 13.33° C | 83% | 1020.8 hPa | 0 mm | - | 192 W/m² | - |
* Rain latest hour (hover to see other rain measurements)
** Current wind speed in m/s (hover to see current wind gust speed)